Date,TemperatureHighF,TemperatureAvgF,TemperatureLowF,DewpointHighF,DewpointAvgF,DewpointLowF,HumidityHigh,HumidityAvg,HumidityLow,PressureMaxIn,PressureMinIn,WindSpeedMaxMPH,WindSpeedAvgMPH,GustSpeedMaxMPH,PrecipitationSumIn
2013-3-1,31.3,27.1,24.2,29.1,23.2,20.0,95,85,78,30.25,30.09,5,2,9,0.02
2013-3-2,29.0,21.9,9.1,20.5,15.4,6.0,91,76,57,30.27,30.21,4,1,7,0.00
2013-3-3,39.8,19.6,1.6,18.3,10.6,-1.1,91,70,37,30.23,30.11,0,0,2,0.09
2013-3-4,35.7,30.8,24.4,29.6,24.8,14.9,87,78,66,30.13,29.92,10,4,18,0.00
2013-3-5,33.8,31.1,26.8,31.8,29.0,24.9,96,92,84,30.10,29.85,6,2,11,0.01
2013-3-6,31.7,27.6,22.4,25.6,23.4,19.6,92,84,76,30.35,30.10,6,2,11,0.00
2013-3-7,38.9,32.1,24.6,28.1,25.3,21.8,91,76,63,30.44,30.39,6,1,8,0.02
2013-3-8,43.5,34.1,21.7,34.5,28.7,19.5,93,81,68,30.46,30.25,9,2,14,0.03
2013-3-9,51.1,42.2,36.4,42.7,37.3,31.7,97,83,68,30.26,29.77,11,7,17,0.40
2013-3-10,51.8,47.7,43.4,50.1,46.5,41.5,98,96,81,29.83,29.55,11,3,15,1.10
2013-3-11,44.6,35.2,30.1,44.1,34.0,25.8,99,95,84,29.92,29.61,13,6,18,0.02
2013-3-12,37.1,27.6,26.0,30.2,18.5,-99.9,90,79,74,30.15,29.92,11,-42,15,0.00
2013-3-13,36.5,28.5,22.1,24.4,20.9,18.4,88,74,48,30.40,30.15,4,1,11,0.00
2013-3-14,44.4,32.5,19.9,32.9,26.3,18.0,94,79,58,30.40,30.09,11,3,15,0.00
2013-3-15,52.5,40.6,29.4,42.6,35.4,27.6,94,83,63,30.09,29.68,5,0,7,0.00
2013-3-16,42.4,35.3,30.3,40.5,31.9,26.9,97,88,73,30.13,29.65,4,1,8,0.00
2013-3-17,36.0,31.9,28.6,28.8,26.3,22.8,88,79,71,30.19,29.93,8,4,15,0.00
2013-3-18,39.5,31.9,25.0,34.9,27.9,16.3,95,85,68,29.95,29.70,11,4,20,0.01
2013-3-19,39.0,28.0,18.8,21.9,16.5,10.2,78,63,40,30.18,29.93,13,4,21,0.00
2013-3-20,29.4,22.9,14.9,21.8,12.3,7.2,80,64,48,30.23,30.13,6,2,18,0.00
2013-3-21,37.1,23.1,10.7,16.8,12.3,7.4,87,65,40,30.15,30.04,3,0,8,0.00
2013-3-22,44.2,31.0,15.8,25.6,19.6,13.5,93,65,37,30.11,30.02,3,0,6,0.00
2013-3-23,47.5,36.8,26.9,28.7,25.5,22.7,85,65,45,30.12,29.98,5,1,9,0.00
2013-3-24,33.2,30.7,28.7,31.8,29.1,25.5,96,94,74,30.01,29.66,2,0,13,0.01
2013-3-25,34.6,30.1,27.4,28.7,26.5,23.4,96,87,77,30.16,29.79,5,0,8,0.21
2013-3-26,34.7,32.9,31.2,29.1,27.9,26.6,84,82,79,30.32,30.16,0,0,1,0.03
2013-3-27,44.0,35.3,25.4,30.8,26.1,21.6,91,70,45,30.38,30.32,7,1,11,0.00
2013-3-28,51.9,36.9,20.8,36.5,28.3,19.1,95,73,47,30.40,30.29,4,0,10,0.00
2013-3-29,58.6,44.1,31.5,36.8,32.4,28.7,92,66,39,30.33,30.22,4,0,7,0.00
2013-3-30,56.6,45.4,29.1,45.1,38.0,26.8,94,76,59,30.23,29.89,15,5,21,0.00
2013-3-31,60.2,49.5,37.2,46.9,39.7,28.4,93,71,40,29.97,29.80,11,3,22,0.00